STARLINK-1661, 46355

Orbit data source: Space-Track

STARLINK-1661, 46355 is a payload satellite owned by SpaceX/Seattle (US) in LEO that was launched on Thu, 03 Sep 2020 UTC via an FALCON 9 launch vehicle from the Air Force Eastern Test Range (AFETR). Payload-class satellites include a variety of spacecraft equipped with specific instruments for various scientific and technological missions. These include communications satellites like Starlink; space stations such as the ISS; scientific satellites like the Hubble; Earth observation satellites from companies like Planet Labs, Umbra, and HawkEye 360; GPS; miniature CubeSats for education and research; and military/defense satellites.

Loading next visibility...
Identifier
46355, 2020-062AG
Orbit
LEO
Country
Flag of USUS
Related business
Manufacturer
SpaceX/Seattle
Mission
Partially operational Commercial Communications
Bus & Motor
STARLINK, Unknown motor
Mass
260 kg wet, ~248 kg dry
Launch date (UTC)
2020-09-03 (6 years ago)
Launch vehicle
FALCON 9
Launch site
Air Force Eastern Test Range (AFETR)
Object type
Payload
Rocket body
Debris
Shape & HBR
Box + 1 Pan, 10.1 m
Radar Cross Section
13.562 m², Large (>1 m²)

Expand to show TLE details & history
Last TLE update: 8 hours ago

TLE from 8 hours ago
0 STARLINK-1661
1 46355U 20062AG  26247.27790072  .00025893  00000-0  51897-3 0  9998
2 46355  53.1510 251.1869 0003645  58.2025 301.9338 15.46570220331884
Epoch: 2026-09-04T06:40Z
TLE epoch observation values (Epoch: 2026-09-04T06:40:10.622Z)
Latitude
0.00004°
Longitude
167.73865°
Altitude
426.362 km
Speed
7.658 km/s
True Right ascension
16h 44m 44s
True Declination
0° 00' 00"
Sunlit
Object was in daylight at epoch
Visualization orbit readout
Latitude
Unknown
Longitude
Unknown
Altitude
Unknown
Speed
Unknown
Apparent Right ascension
Unknown
Apparent Declination
Unknown
Sunlit
N/A
Visualization observer readout
Local Sidereal Time
06:07:13
Azimuth
Unknown
Elevation
Unknown
Doppler factor
Unknown
Orbital elements
Apogee altitude
429.508 km
Perigee altitude
424.547 km
Semi-major axis
6,805.165 km
Eccentricity
0.00036
Inclination
53.151°
RAAN
251.1869°
Arg. of periapsis
58.2025°
True anomaly
301.89834°
Mean anomaly
301.9338°
Eccentric anomaly
301.91607°
Mean motion
3.86621 °/min
Orbital period
93.11 mins
BSTAR
0.00051897
Loading maneuver chart data...
Computing Atmospheric mass density...

Documentation

Showing up to 5 results
|